Home   Weather   Cahul   Past weeks

Flag for Moldova Past Weather in Cahul, Moldova — Yesterday and Last 2 Weeks

Now
59 °F

Overcast.


Feels Like: 59 °F
Forecast: 45 / 72 °F
Wind: 3 mph from Northeast

Location: Galati

Current Time: Apr 27, 2017 at 12:27:51 pm

Latest Report: Apr 27, 2017 at 11:00 am


Visibility: 6 mi

Pressure: 30.08 "Hg

Humidity: 70%

Dew Point: 49 °F

Location of CahulLocation

Past Weather in Cahul — Graph

°F

Cahul Temperature Yesterday

Maximum temperature yesterday: 71 °F (at 3:00 pm)
Minimum temperature yesterday: 46 °F (at 7:00 am)
Average temperature yesterday: 57 °F

High & Low Weather Summary for the Past Weeks

 TemperatureHumidityPressure
High71 °F (Apr 26, 3:00 pm)100% (Apr 20, 5:00 pm)30.20 "Hg (Apr 20, 5:00 pm)
Low32 °F (Apr 20, 7:00 pm)29% (Apr 15, 4:00 pm)29.72 "Hg (Apr 13, 8:00 pm)
Average49 °F68%29.99 "Hg
* Reported Apr 12 11:00 am — Apr 27 11:00 am, Cahul, Weather by CustomWeather, © 2017

Note: Actual official high and low records may vary slightly from our data, if they occured in-between our weather recording intervals... More about our weather records

Advertising

Cahul Weather History for the Previous 24 Hours

Scroll right to see more
 ConditionsComfort  
Time TempWeatherWind HumidityBarometerVisibility
11:00 am
Thu, Apr 27
59 °FOvercast.3 mph70%30.08 "Hg6 mi
10:00 am55 °FOvercast.3 mph76%30.09 "Hg6 mi
9:00 am52 °FPartly sunny.3 mph84%30.09 "Hg6 mi
8:00 am47 °FScattered clouds.3 mph89%30.09 "Hg6 mi
7:00 am44 °FPassing clouds.2 mph95%30.09 "Hg6 mi
6:00 am43 °FPassing clouds.2 mph89%30.07 "Hg6 mi
5:00 am44 °FClear.1 mph94%30.08 "Hg6 mi
4:00 am44 °FClear.1 mph92%30.09 "Hg6 mi
3:00 am45 °FClear.2 mph91%30.09 "Hg6 mi
2:00 am46 °FClear.1 mph90%30.11 "Hg6 mi
1:00 am47 °FClear.1 mph85%30.10 "Hg6 mi
12:00 am48 °FClear.1 mph81%30.09 "Hg12 mi
11:00 pm
Wed, Apr 26
50 °FPassing clouds.2 mph67%30.09 "Hg12 mi
10:00 pm52 °FPassing clouds.3 mph59%30.08 "Hg12 mi
8:00 pm61 °FScattered clouds.2 mph46%30.06 "Hg12 mi
7:00 pm66 °FScattered clouds.3 mph39%30.05 "Hg12 mi
6:00 pm68 °FPassing clouds.5 mph35%30.06 "Hg12 mi
5:00 pm70 °FPassing clouds.5 mph37%30.06 "Hg12 mi
4:00 pm70 °FPassing clouds.5 mph37%30.08 "Hg12 mi
3:00 pm71 °FPassing clouds.5 mph35%30.09 "Hg12 mi
2:00 pm70 °FSunny.5 mph36%30.10 "Hg12 mi
1:00 pm68 °FSunny.3 mph41%30.11 "Hg12 mi
12:00 pm66 °FSunny.3 mph39%30.12 "Hg12 mi
Weather by CustomWeather, © 2017

See weather overviewHow to use our weather pages